Hourly Data Report for July 13, 2021

KUGLUKTUK A
NUNAVUT
Current Station Operator: NAVCAN

67°49'00.000" N
115°08'38.000" W
22.60 m
2300903
71938
YCO

Download Data

Hourly Data (July 2021)
Hourly Data Report for July 13, 2021
TIME
LST
Temp Definition
°C
Dew Point Definition
°C
Rel Hum Definition
%
Precip. Amount Definition
mm

Wind Dir Definition
10's deg

Wind Spd Definition
km/h
Visibility Definition
km
Stn Press Definition
kPa
Hmdx Definition


Wind Chill Definition


Weather Definition


00:00 12.5 7.9 73   23 17 24.1 100.62     LegendNANA
01:00 12.8 7.8 71   23 16 24.1 100.55     LegendNANA
02:00 14.6 8.0 64   24 24 24.1 100.48     Cloudy
03:00 15.2 8.3 63   25 24 24.1 100.42     LegendNANA
04:00 15.3 8.5 63   25 25 24.1 100.40     LegendNANA
05:00 15.5 8.7 63   26 19 24.1 100.39     Mostly Cloudy
06:00 15.3 9.2 66   23 18 24.1 100.33     LegendNANA
07:00 16.9 8.9 59   23 26 24.1 100.27     LegendNANA
08:00 19.9 9.6 51   24 29 24.1 100.20     Mostly Cloudy
09:00 20.6 9.2 48   25 26 24.1 100.18     LegendNANA
10:00 21.6 9.4 45   24 24 24.1 100.10     LegendNANA
11:00 23.6 10.4 43   24 25 24.1 100.05 25   Mostly Cloudy
12:00 24.9 8.1 34   25 37 24.1 99.99 25   LegendNANA
13:00 25.6 8.5 33   25 31 24.1 99.95 26   LegendNANA
14:00 26.2 7.8 30   24 39 24.1 99.91 27   Mostly Cloudy
15:00 26.8 7.9 30   25 31 24.1 99.85 27   LegendNANA
16:00 27.1 7.3 28   28 35 24.1 99.81 27   LegendNANA
17:00 15.9 9.2 64   3 25 24.1 99.90     Mostly Cloudy
18:00 14.3 9.8 74   7 11 24.1 99.99     LegendNANA
19:00 13.6 9.5 76   8 19 24.1 100.06     LegendNANA
20:00 13.7 9.8 77   9 12 24.1 100.07     Mostly Cloudy
21:00 11.8 9.3 85   5 20 24.1 100.10     LegendNANA
22:00 10.0 8.1 88   4 18 24.1 100.11     LegendNANA
23:00 10.0 8.1 88   4 12 24.1 100.15     Cloudy

Notes on Data Quality.

Legend

  • E = Estimated
  • M = Missing
  • NA = Not Available*
  • [empty] = Indicates an unobserved value
Date modified: